ORBCOMM FM110 [+] (41182 NORAD) Tracking and Keplerian Element Data

This shows tracking and keplerian element data for the satellite.

Feedback or suggestion? Click here.




ElementValue
Catalog41182
NameORBCOMM FM110 [+]
Epoch Orbit15780
Epoch Day345.19094709
Epoch Year2018
RAAN319.624
Inclination47.0026
Eccentricity3.15E-05
Argument of Perigee38.4493
Mean Anonmoly321.6413
Mean Motion14.54753637
Decay Rate-4.4E-07
L11 41182U 15081D 18345.19094709 -.00000044 00000-0 27963-4 0 9991
L22 41182 47.0026 319.6240 0000315 38.4493 321.6413 14.54753637157808

Live tracking and technical data element details for ORBCOMM FM110 [+] (NORAD 41182). ORBCOMM FM110 [+] can be tracked NOW for your location showing map with azimuth and elevation plus other details from your city location.

Track the satellite on the map from your city or location and see movement details for azimuth, elevation, latitude, longitude, range, height, and movement on the map or in text.







IsCatalogInMostPopularTable: catalog: 41182, numindb: 120
Update: records affected: 1



GetName: 41182 ORBCOMM FM110 [+]

Hit Count: updated at: Thu, 13 Dec 2018 04:38:49 GMT